Location: Altmatt
(47.1333°N, 8.7000°E)
Time: 19:06:10
(UTC+00:00)

Cosmos 44 Rocket - Pass Details

Date: 13 July 2020
Orbit: 650 x 740 km, 65.1° (Epoch: 11 August)

Event Time Altitude Azimuth Distance (km) Brightness Sun altitude
Exits shadow 23:17:04 19° 247° (WSW) 1,550 4.9 -21.2°
Maximum altitude 23:20:08 47° 314° (NW) 884 4.1 -21.2°
Drops below altitude 10° 23:24:46 10° 28° (NNE) 2,113 6.6 -21.2°
Sets 23:27:12 0° 35° (NE) 3,045 7.5 -21.2°
